Regional Weather Roundup
Issued by NWS

Home | Current Version | Previous Version | Graphics & Text | Print | Product List | Glossary On
Versions: 1 2 3 4 5 6 7 8 9 10 11 12 13 14 15 16 17 18 19 20 21 22 23 24 25 26 27
000
ASUS45 KSLC 241510
RWRUT

UTAH REGIONAL WEATHER ROUNDUP
NATIONAL WEATHER SERVICE SALT LAKE CITY UT
900 AM MDT MON APR 24 2017

UTZ001>011-023>025-241600-

NORTHERN UTAH

CITY           SKY/WX    TMP DP  RH WIND       PRES   REMARKS
BRIGHAM CITY   CLOUDY    50  41  72 CALM      29.70S
DUGWAY         PTSUNNY   48  41  75 N5        29.70S
HILL AFB       PTSUNNY   48  35  59 E9        29.70S
LOGAN          CLOUDY    48  41  76 SE7       29.69F
OGDEN          CLOUDY    49  35  58 S5        29.69S
SALT LAKE CITY CLOUDY    53  40  61 S13       29.69S
TOOELE VALLEY  CLOUDY    50  37  62 S15G26    29.69R
WENDOVER       CLOUDY    54  25  32 W12       29.70S
HEBER CITY     CLOUDY    37  37 100 CALM      29.74F
WEST JORDAN    CLOUDY    54  46  74 S14G21    29.71R

$$

UTZ011>015-024>027-241600-

CENTRAL/NORTHEAST UTAH

CITY           SKY/WX    TMP DP  RH WIND       PRES   REMARKS
PROVO AIRPORT  CLOUDY    49  42  77 SE6       29.72F
MOAB/CANYONLAN CLOUDY    54  34  46 CALM      29.74F
DELTA          CLOUDY    46  37  71 CALM      29.72S
PRICE          CLOUDY    48  34  58 CALM      29.78F
RICHFIELD      CLOUDY    45  41  87 CALM      29.78F
ROOSEVELT      CLOUDY    48  34  57 CALM      29.80S
VERNAL         CLOUDY    50  36  58 E3        29.78F

$$

UTZ013>016-019>022-027-241600-

SOUTHERN UTAH

CITY           SKY/WX    TMP DP  RH WIND       PRES   REMARKS
BRYCE CANYON   PTSUNNY   48  27  44 CALM      29.87F
CEDAR CITY     CLOUDY    45  35  68 CALM      29.77S
MILFORD        CLOUDY    50  37  61 SW16      29.73F
ST GEORGE      CLOUDY    59  26  28 CALM      29.73S
HANKSVILLE     CLOUDY    50  32  50 CALM      29.77F
KANAB          SUNNY     52  30  43 NW5       29.84S
BLANDING       CLOUDY    54  28  37 E5        29.91S

$$

REGIONAL REPORTS     COLORADO/ARIZONA

CITY           SKY/WX    TMP DP  RH WIND       PRES   REMARKS
CRAIG, CO      CLOUDY    46  38  73 NE6       29.82F
GRAND JUNCTION PTSUNNY   57  34  41 SE3       29.78F
RIFLE, CO      CLOUDY    53  37  54 CALM      29.80F
MONTROSE, CO   MOSUNNY   57  29  34 SE3       29.84F
CORTEZ, CO     CLOUDY    49  30  48 NE5       29.87S
COLORADO CITY    N/A     54  32  43 CALM      29.83S
PAGE, AZ       MOSUNNY   61  28  28 CALM      29.76F
GRAND CANYON   PTSUNNY   52  25  35 SW16G23   29.91R
KINGMAN, AZ    MOSUNNY   65  27  23 SW7       29.79R
FLAGSTAFF, AZ  MOSUNNY   53  23  31 SW20      29.93S

$$

REGIONAL REPORTS    NEVADA/IDAHO/WYOMING

CITY           SKY/WX    TMP DP  RH WIND       PRES   REMARKS
LAS VEGAS, NV  PTSUNNY   68  28  22 S12       29.69R
ELY, NY        PTSUNNY   44  30  57 SE6       29.78S
ELKO, NV       CLOUDY    45  31  58 W15G24    29.78S
POCATELLO, ID  CLOUDY    47  37  68 S5        29.72S
BURLEY, ID     LGT RAIN  45  40  82 S6        29.69S
EVANSTON, WY   CLOUDY    39  32  76 S7        29.75F WCI  34
ROCK SPRINGS,  CLOUDY    42  36  79 S5        29.76F
KEMMERER, WY     N/A     34  32  93 N3        29.75F

$$




USA.gov is the U.S. government's official web portal to all federal, state and local government web resources and services.